Tracking 28052 objects as of 24-Sep-2023
HD Live streaming from Space Station
objects crossing your sky now

STARLINK-5707

Track STARLINK-5707 now!
10-day predictions
STARLINK-5707 is classified as:


NORAD ID: 56879
Int'l Code: 2023-083D
Perigee: 565.6 km
Apogee: 566.9 km
Inclination: 43.0 °
Period: 95.8 minutes
Semi major axis: 6937 km
RCS: Unknown
Launch date: June 12, 2023
Source: United States (US)
Launch site: AIR FORCE EASTERN TEST RANGE (AFETR)
Your satellite tracking list
Your tracking list is empty




NASA's NSSDC Master Catalog

Two Line Element Set (TLE):
1 56879U 23083D   23266.75444421 -.00000227  00000-0 -17711-5 0  9996
2 56879  43.0017 281.2497 0000961 269.5875  90.4857 15.02532065 15797
Source of the keplerian elements: AFSPC